Погода в Барановичи

Погода в Барановичи : погода сейчас, прогноз погоды и архив. Всё, что Вы хотите узнать о погоде в Барановичи!

Хотите узнать прогноз погоды в Барановичи? Тогда Вам сюда: Погода в Барановичи

Поиск расширенной информации на нашем сайте:

Другие новости

Новости СМИ2

Главная страница сайта

Новости сайта

03.07.2017

Напоминаем, что на нашем специализированном сайте Метеоцентр.Азия вы можете получить высокодетализированные автоматические прогнозы погоды по пунктам России, СНГ и мира в авиационном формате (включающие направление и скорость ветра, видимость, явления погоды, количество и форму облачности, нижнюю и верхнюю границу облачности).


Погода в Барановичи - сегодня

Время (UTC), дата Ветер
(°,м/с) 
Видим.   Явления Облачность Т
(°С)
Тd
(°С)
f(%) Тe
(°С)
Pmin
(гПа)
dP
(гПа)
Po
(мм)
O2
(г/м3)
Тmin Tmax R s Состояние
почвы
21 19.07.17 тихо ()   10 км    8/0 средняя 
[Ac As]
+16.2 +12.6 79 +21  1016.7  -0.2  745  281           
00 20.07.17 тихо ()   7000 м  дымка  3/0 средняя 
[Ac As]
+12.5 +11.5 94 +16  1016.3  -0.7  745  285           
03 20.07.17 тихо ()   9000 м  дымка  3/0 средняя 
[Ac As]
+10.4 +9.5 94 +11  1015.5  -0.9  744  287           
06 20.07.17 160 (Ю) 10 км    9/0 верхняя 
[Ci sp]
+18.1 +12 68 +23  1014.3  -0.5  744  279  +10.2         
09 20.07.17 140 (ЮВ) 10 км    8/0 верхняя 
[Ci sp]
+21.9 +11.5 52 +25  1013.2  -0.8  743  275           
12 20.07.17 140 (ЮВ) 10 км    8/6 1000 м верхняя 
[Cu hum|Ci fib]
+23.9 +14.1 54 +31  1011.7  -1.4  742  272           
15 20.07.17 130 (ЮВ) 10 км  в посл. час гроза{ливн. осадки}  8/8 1000 м 
[Cu med, cong]
+19.3 +14.7 75 +28  1011.8  -0.3  742  276      27     
18 20.07.17 140 (ЮВ) 10 км  {гроза, ливн. осадки}  4/3 1000 м верхняя 
[Cu med, cong|Ci fib]
+19.9 +16.4 80 +33  1011.2  -0.5  742  275    +24.7  27     
21 20.07.17 360 (С) 8000 м  дымка  ясно 
+15.5 +14.8 96 +26  1012.4  0.8  742  280           
00 21.07.17 340 (С) 8000 м  слаб. ливневой дождь  10/10 600 м кучево-дожд. 
[Cb calv]
+15.9 +15.2 96 +26  1012.4  0.1  742  279         
03 21.07.17 350 (С) 10 км  {ливн. осадки}  8/8 600 м 
[Sc]
+14.9 +14 94 +23  1012.1  -0.4  742  281         
06 21.07.17 040 (СВ) 10 км  {ливн. осадки}  3/0 средняя, верхняя 
[Ac trans|Ci fib]
+17.8 +14.9 83 +28  1013  1.2  743  278  +14.5       
09 21.07.17 340 (С) 10 км    4/0 средняя, верхняя 
[Ac trans|Ci fib]
+22.3 +14.5 61 +30  1013.3  0.6  743  274           
12 21.07.17 320 (СЗ) 10 км    10/6 600 м кучево-дожд., верхняя 
[Cb calv|Ci fib]
+25.1 +14.1 50 +32  1012.9  -0.2  743  271           
15 21.07.17 340 (С) 10 км    10/0 средняя, верхняя 
[Ac As|Ci fib]
+24.4 +14.5 54 +32  1012.5  -0.5  743  272           
18 21.07.17 360 (С) 10 км  {ливн. осадки}  9/9 1000 м 
[Sc]
+20.2 +13.4 65 +26  1013  0.2  743  276    +25.6  0.0     
21 21.07.17 360 (С) 10 км  в посл. час ливневой дождь  10/10 600 м кучево-дожд. 
[Cb calv]
+18 +13.6 75 +26  1013  -0.1  743  278      0.0     
00 22.07.17 360 (С) 8000 м  слаб. ливневой дождь  10/10 600 м кучево-дожд. 
[Cb calv]
+15.5 +13.7 89 +23  1013.5  0.2  743  281         
03 22.07.17 330 (СЗ) 10 км  {ливн. осадки}  9/9 600 м 
[Sc]
+15 +13.7 92 +22  1013.7  0.2  743  281         
06 22.07.17 350 (С) 10 км  {ливн. осадки}  9/9 1000 м 
[Sc]
+16.1 +13.6 85 +23  1014.9  1.3  744  280  +14.8       
09 22.07.17 020 (С) 10 км    8/3 600 м средняя 
[Cu med, cong|Ac trans]
+20.5 +13.7 65 +27  1015.7  745  276           
12 22.07.17 360 (С) 10 км    8/4 1000 м средняя 
[Cu med, cong|Ac trans]
+22.3 +11.4 50 +25  1016.1  0.6  745  276           
15 22.07.17 320 (СЗ) 10 км    8/3 1000 м средняя 
[Cu med, cong|Ac und]
+22.9 +9.9 44 +24  1016  -0.1  745  275           
18 22.07.17 320 (СЗ) 10 км    9/0 средняя 
[Ac und]
+20.7 +13.4 63 +27  1016.4  0.2  745  277    +23.5       
21 22.07.17 320 (СЗ) 10 км    9/0 средняя 
[Ac und]
+16.9 +13.1 78 +24  1017.5  0.9  746  281           
Время (UTC), дата Ветер
(°,м/с) 
Видим.   Явления Облачность Т
(°С)
Тd
(°С)
f(%) Тe
(°С)
Pmin
(гПа)
dP
(гПа)
Po
(мм)
O2
(г/м3)
Тmin Tmax R s Состояние
почвы

Для получения пояснительной информации подведите курсор к названию столбца.

ПОГОДА в Барановичи - архив

Всё, что Вы хотите узнать о погоде в Барановичи - удобно и подробно!

Выберите нужную дату (начиная с 1 января 2015* года) и нажмите кнопку "Найти".
Будут отображены архивные сводки погоды по пункту Барановичи, начиная с указанной даты.


Отображать данные в формате CSV (для использования в таблицах Excel)


Внимание! Наш архив погоды предназначен исключительно для личного некоммерческого использования в познавательных целях. Если Вам необходимы официальные справки о состоянии погоды (для производственных, юридических, коммерческих и т.п. целей), обращайтесь в органы Росгидромета.

*Примечание: данная дата относится к архиву по метеостанциям СССР (Россия, СНГ, Балтия).
Архив по метеостанциям Зарубежной Европы и Азии (кроме Китая) хранится 10 дней, по другим регионам земного шара (Китай, Африка, Америка, Австралия, Океания) - 1 день.

Барановичи - район местоположения метеостанции


Название, широта, долгота, высота метеостанции:
Барановичи 53.1°ш. 26°д. 193 м над ур. моря [Беларусь]

Дополнительная информация

В oтличие oт бoльшинства пoгoдных сайтoв мы публикуем пoдрoбную метеoинфoрмацию в детальнoм прoфессиoнальнoм фoрмате.

Характеристики температуры и влажнoсти вoздуха измеряются на высoте 2 м в тени вдали oт зданий и деревьев.
Скoрoсть ветра измеряется на высoте 10 м (на урoвне рoста челoвека скoрoсть ветра ниже в 1.5-2 раза). Если метеoстанция нахoдится в гoрoде или в лесу, тo скoрoсть ветра занижена на 2-4 м/с пo сравнению с oткрытым местoм. Скoрoсть ветра над акватoриями крупных рек и oзёр, а также на вершинах хoлмoв на 2-5 м/с выше, чем в oбычных услoвиях.
Атмoсфернoе давление в разных тoчках местнoсти мoжет значительнo oтличаться oт давления на метеoстанции, в зависимoсти oт услoвий рельефа (при пoдъёме на 10 м давление пoнижается примернo на 1 мм рт.ст.).